This demonstration page uses our WeatherBlox Daily Observations layout. Learn more.

Left ArrowRight Arrow

Hourly Observations for October 3, 2016

Temp ( °F °C ) Dew Point ( °F °C ) Humidity (%) Winds ( mph kmh ) Pressure ( in mb ) Visibility ( mi km ) Precip ( " mm )
12:54 am 00:54 Clear 60 15.6 54 12.2 80 80 SSE 7 11 30.03 1017 10 16.0934 0 0
1:54 am 01:54 Clear 59 15 54 12.2 83 83 SE 6 9 30.02 1017 10 16.0934 0 0
2:54 am 02:54 Clear 58 14.4 54 12.2 87 87 S 7 11 30.01 1016 10 16.0934 0 0
3:54 am 03:54 Clear 58 14.4 54 12.2 87 87 SSE 8 13 30 1016 10 16.0934 0 0
4:54 am 04:54 Clear 59 15 54 12.2 83 83 SSE 8 13 29.99 1016 10 16.0934 0 0
5:54 am 05:54 Clear 59 15 54 12.2 83 83 SE 8 13 29.98 1015 10 16.0934 0 0
6:54 am 06:54 Clear 58 14.4 55 12.8 90 90 SSE 9 15 29.98 1015 10 16.0934 0 0
7:54 am 07:54 Sunny 59 15 55 12.8 87 87 SE 8 13 29.98 1015 10 16.0934 0 0
8:54 am 08:54 Sunny 63 17.2 56 13.3 78 78 SSE 14 22 29.96 1015 10 16.0934 0 0
9:54 am 09:54 Sunny 67 19.4 56 13.3 68 68 SSE 14 22 29.95 1014 10 16.0934 0 0
10:54 am 10:54 Sunny 71 21.7 57 13.9 61 61 SSE 15 24 29.93 1014 10 16.0934 0 0
11:54 am 11:54 Sunny 75 23.9 58 14.4 55 55 SE 16 26 29.9 1013 10 16.0934 0 0
12:54 pm 12:54 Sunny 78 25.6 58 14.4 50 50 SE 17 28 29.87 1012 10 16.0934 0 0
1:54 pm 13:54 Sunny 76 24.4 57 13.9 52 52 SSE 18 30 29.83 1010 10 16.0934 0 0
2:54 pm 14:54 Sunny 77 25 57 13.9 50 50 SE 18 30 29.79 1009 10 16.0934 0 0
3:54 pm 15:54 Sunny 80 26.7 57 13.9 45 45 SSE 18 30 29.77 1008 10 16.0934 0 0
4:54 pm 16:54 Mostly Sunny 78 25.6 57 13.9 48 48 SE 22 35 29.74 1007 10 16.0934 0 0
5:54 pm 17:54 Mostly Sunny 77 25 58 14.4 52 52 SSE 24 39 29.73 1007 10 16.0934 0 0
6:54 pm 18:54 Sunny 75 23.9 58 14.4 55 55 SE 21 33 29.72 1006 10 16.0934 0 0
7:54 pm 19:54 Clear 74 23.3 58 14.4 57 57 SE 22 35 29.72 1006 10 16.0934 0 0
8:54 pm 20:54 Clear 72 22.2 57 13.9 59 59 SSE 18 30 29.71 1006 10 16.0934 0 0
9:54 pm 21:54 Clear 72 22.2 57 13.9 59 59 SSE 20 31 29.7 1006 10 16.0934 0 0
10:54 pm 22:54 Clear 71 21.7 57 13.9 61 61 SSE 24 39 29.68 1005 10 16.0934 0 0
11:54 pm 23:54 Clear 70 21.1 57 13.9 64 64 SSE 24 39 29.67 1005 10 16.0934 0 0

Powered by AerisWeather